Precipitable_Water
0.61 0.60 0.58 0.58 0.58 0.59 0.59 0.60 0.61 0.61 0.61 0.61 0.62 0.62 0.63 0.64 0.63 0.63 0.63 0.64 0.64 0.64 0.63 0.63 0.62 0.61 0.58 0.55 0.53 0.51 0.50 0.40 0.33 0.28 0.30 0.31 0.36 0.40 0.36 0.39 0.41 0.42 0.45 0.44 0.52 0.60 0.58 0.65 0.68 0.83 0.95 1.10 1.10 1.04 1.20 1.26 1.17 1.18 1.07 1.02 0.93 0.98 1.00 1.09 1.05 1.06 1.12 1.08 1.07 1.13 1.12 1.03 0.98 1.04 1.03 1.19 1.16 1.13 1.22 1.16 1.21 1.26 1.30 1.35 1.48 1.58 1.61 1.67
0.58 0.56 0.55 0.55 0.55 0.54 0.55 0.56 0.56 0.55 0.55 0.57 0.57 0.58 0.60 0.60 0.59 0.58 0.59 0.61 0.61 0.61 0.62 0.63 0.63 0.62 0.61 0.58 0.57 0.55 0.48 0.38 0.28 0.28 0.25 0.31 0.37 0.39 0.41 0.43 0.44 0.41 0.41 0.38 0.40 0.49 0.52 0.57 0.65 0.77 0.89 0.92 1.18 0.99 1.09 1.07 1.20 0.94 0.99 0.96 0.94 1.03 1.11 1.19 1.18 1.19 1.05 1.06 1.21 1.22 1.13 1.09 1.08 1.09 1.01 1.15 1.06 1.12 1.13 1.09 1.24 1.21 1.26 1.36 1.46 1.50 1.53 1.60
0.54 0.53 0.53 0.52 0.51 0.52 0.53 0.53 0.53 0.52 0.52 0.51 0.53 0.55 0.57 0.57 0.56 0.56 0.56 0.57 0.58 0.59 0.60 0.62 0.64 0.64 0.62 0.61 0.60 0.58 0.50 0.33 0.32 0.22 0.23 0.35 0.34 0.35 0.35 0.41 0.41 0.40 0.33 0.32 0.39 0.48 0.52 0.60 0.65 0.73 0.85 0.93 0.99 0.88 0.96 0.96 1.11 0.97 0.87 0.91 0.97 1.18 1.16 1.22 1.23 1.19 1.16 1.22 1.09 1.05 1.04 1.02 1.06 1.11 0.89 1.13 1.07 1.12 1.08 1.08 1.20 1.11 1.13 1.21 1.35 1.44 1.46 1.53
0.50 0.50 0.50 0.50 0.49 0.49 0.49 0.49 0.50 0.50 0.49 0.49 0.52 0.53 0.53 0.53 0.53 0.53 0.53 0.54 0.55 0.59 0.61 0.63 0.64 0.64 0.63 0.62 0.65 0.59 0.48 0.36 0.21 0.20 0.30 0.31 0.35 0.35 0.35 0.37 0.38 0.35 0.30 0.34 0.42 0.51 0.65 0.70 0.69 0.75 0.86 0.84 0.94 0.93 0.86 0.90 0.94 1.06 0.85 0.76 1.00 1.14 1.07 1.16 1.28 1.22 1.13 1.20 1.09 1.11 1.01 0.93 0.97 1.04 1.06 1.15 1.02 1.13 1.16 1.25 1.22 1.11 1.12 1.20 1.30 1.37 1.42 1.46
0.47 0.46 0.46 0.46 0.46 0.46 0.46 0.46 0.47 0.45 0.46 0.49 0.49 0.49 0.51 0.51 0.51 0.52 0.52 0.51 0.54 0.57 0.60 0.62 0.64 0.65 0.64 0.64 0.63 0.61 0.45 0.20 0.24 0.41 0.44 0.45 0.41 0.39 0.39 0.40 0.39 0.34 0.29 0.29 0.40 0.55 0.67 0.66 0.72 0.77 0.85 0.80 0.80 0.89 0.79 0.90 1.00 1.02 0.90 0.95 1.03 1.12 1.08 1.18 1.20 1.22 1.19 1.08 0.95 0.85 0.95 1.02 1.12 1.06 1.05 1.09 1.00 1.04 1.19 1.33 1.33 1.22 1.18 1.19 1.26 1.35 1.41 1.42
0.43 0.44 0.44 0.44 0.44 0.45 0.46 0.46 0.46 0.46 0.46 0.46 0.45 0.47 0.48 0.49 0.50 0.50 0.50 0.50 0.52 0.56 0.59 0.63 0.67 0.67 0.67 0.65 0.63 0.56 0.42 0.12 0.48 0.47 0.48 0.46 0.47 0.49 0.46 0.45 0.42 0.35 0.31 0.26 0.34 0.53 0.65 0.65 0.71 0.70 0.74 0.76 0.72 0.69 0.83 0.84 1.09 0.80 0.88 0.96 1.08 1.04 1.02 1.20 1.23 1.23 1.15 0.95 0.98 0.93 1.11 1.09 0.89 1.09 1.07 1.08 1.02 1.10 1.34 1.42 1.34 1.29 1.25 1.28 1.29 1.31 1.33 1.36
0.43 0.42 0.42 0.42 0.43 0.43 0.44 0.44 0.43 0.41 0.41 0.41 0.42 0.44 0.45 0.46 0.46 0.48 0.48 0.49 0.52 0.55 0.61 0.66 0.70 0.71 0.69 0.66 0.58 0.51 0.38 0.28 0.33 0.49 0.45 0.41 0.39 0.43 0.49 0.49 0.45 0.36 0.31 0.25 0.32 0.52 0.63 0.61 0.63 0.65 0.68 0.66 0.71 0.71 0.82 0.88 0.96 0.92 0.85 0.94 0.97 1.11 1.01 1.11 1.20 1.28 1.10 1.00 0.97 0.97 0.99 0.92 0.89 0.87 1.05 1.01 1.02 1.18 1.23 1.35 1.25 1.28 1.29 1.28 1.22 1.25 1.29 1.32
0.42 0.43 0.42 0.43 0.43 0.42 0.41 0.42 0.39 0.39 0.38 0.39 0.40 0.42 0.42 0.43 0.43 0.44 0.46 0.48 0.52 0.57 0.64 0.70 0.74 0.72 0.71 0.58 0.49 0.42 0.37 0.28 0.32 0.43 0.42 0.40 0.40 0.39 0.42 0.43 0.40 0.34 0.30 0.24 0.33 0.53 0.62 0.55 0.54 0.62 0.62 0.60 0.64 0.67 0.79 0.85 0.91 0.83 0.83 0.93 0.97 0.99 1.05 1.14 1.15 1.19 1.18 0.97 1.03 1.01 0.85 0.82 0.89 0.88 0.89 0.94 1.08 1.24 1.23 1.36 1.27 1.19 1.23 1.26 1.22 1.25 1.28 1.32
0.42 0.41 0.41 0.40 0.40 0.40 0.39 0.38 0.38 0.36 0.36 0.36 0.37 0.39 0.40 0.40 0.40 0.41 0.43 0.46 0.52 0.59 0.65 0.71 0.76 0.76 0.74 0.59 0.46 0.38 0.32 0.46 0.47 0.52 0.42 0.34 0.38 0.39 0.38 0.33 0.38 0.31 0.28 0.26 0.40 0.60 0.61 0.49 0.57 0.61 0.56 0.60 0.68 0.65 0.72 0.73 0.75 0.82 0.84 0.92 0.90 0.87 0.92 1.04 1.11 1.10 1.22 1.07 1.05 0.88 0.79 0.80 0.84 0.90 0.78 1.02 1.07 1.18 1.28 1.27 1.21 1.15 1.06 1.15 1.15 1.22 1.25 1.28
0.41 0.40 0.39 0.39 0.40 0.39 0.38 0.38 0.36 0.36 0.35 0.33 0.34 0.35 0.37 0.38 0.39 0.40 0.40 0.43 0.51 0.59 0.65 0.71 0.78 0.77 0.65 0.50 0.44 0.31 0.42 0.51 0.47 0.57 0.46 0.37 0.35 0.38 0.34 0.37 0.34 0.31 0.29 0.30 0.46 0.62 0.56 0.53 0.53 0.69 0.70 0.70 0.70 0.63 0.72 0.71 0.71 0.86 0.83 0.85 0.86 0.89 0.86 0.86 0.94 1.11 1.09 1.00 1.00 0.79 0.79 0.79 0.83 0.79 0.77 0.97 1.03 1.12 1.17 1.20 1.17 1.07 1.05 1.07 1.12 1.19 1.19 1.25
0.41 0.40 0.39 0.39 0.38 0.38 0.37 0.36 0.35 0.34 0.33 0.32 0.31 0.31 0.34 0.36 0.38 0.38 0.38 0.41 0.51 0.58 0.65 0.69 0.76 0.75 0.58 0.53 0.37 0.30 0.54 0.40 0.41 0.53 0.50 0.39 0.35 0.34 0.33 0.42 0.35 0.32 0.35 0.41 0.49 0.63 0.61 0.55 0.60 0.73 0.72 0.63 0.72 0.65 0.67 0.71 0.77 0.80 0.85 0.85 0.82 0.77 0.80 0.86 0.92 0.95 1.00 0.93 0.89 0.84 0.79 0.76 0.80 0.76 0.75 0.97 1.03 1.11 1.12 1.17 1.15 1.11 1.06 1.06 1.03 1.08 1.18 1.21
0.42 0.40 0.39 0.39 0.37 0.37 0.36 0.35 0.33 0.32 0.31 0.30 0.29 0.30 0.32 0.35 0.37 0.37 0.37 0.40 0.49 0.57 0.62 0.67 0.73 0.70 0.64 0.54 0.41 0.39 0.50 0.46 0.44 0.52 0.54 0.41 0.39 0.35 0.39 0.45 0.42 0.34 0.41 0.48 0.52 0.62 0.61 0.53 0.57 0.59 0.59 0.70 0.57 0.67 0.67 0.75 0.74 0.75 0.81 0.67 0.68 0.69 0.71 0.76 0.78 0.89 0.95 0.87 0.89 0.83 0.70 0.66 0.67 0.69 0.76 0.94 1.07 1.09 1.11 1.15 1.09 1.12 1.12 1.12 1.03 1.08 1.14 1.16
0.42 0.41 0.40 0.39 0.38 0.37 0.36 0.34 0.33 0.30 0.29 0.28 0.27 0.30 0.33 0.34 0.35 0.36 0.36 0.40 0.49 0.55 0.60 0.63 0.69 0.67 0.58 0.43 0.47 0.57 0.56 0.57 0.55 0.49 0.55 0.49 0.37 0.40 0.44 0.45 0.49 0.40 0.41 0.50 0.56 0.59 0.57 0.52 0.49 0.50 0.62 0.67 0.55 0.48 0.66 0.72 0.70 0.71 0.75 0.71 0.69 0.64 0.58 0.65 0.75 0.82 0.85 0.83 0.83 0.78 0.52 0.58 0.60 0.65 0.78 0.94 1.04 1.06 1.06 1.14 1.11 1.12 1.11 1.12 1.07 1.11 1.08 1.14
0.41 0.40 0.39 0.39 0.38 0.37 0.36 0.34 0.32 0.29 0.27 0.27 0.27 0.30 0.32 0.34 0.35 0.37 0.37 0.40 0.49 0.54 0.58 0.63 0.65 0.61 0.53 0.41 0.54 0.62 0.63 0.59 0.58 0.53 0.47 0.58 0.46 0.33 0.37 0.44 0.48 0.49 0.47 0.46 0.56 0.56 0.47 0.44 0.42 0.44 0.59 0.56 0.53 0.61 0.56 0.59 0.62 0.57 0.65 0.69 0.58 0.55 0.50 0.60 0.62 0.72 0.73 0.81 0.78 0.74 0.53 0.58 0.64 0.69 0.75 0.89 1.04 1.02 1.04 1.13 1.15 1.17 1.17 1.15 1.12 1.11 1.08 1.09
0.40 0.40 0.39 0.37 0.36 0.36 0.35 0.34 0.31 0.28 0.27 0.27 0.27 0.30 0.32 0.34 0.37 0.39 0.41 0.44 0.49 0.55 0.58 0.63 0.63 0.55 0.43 0.42 0.60 0.64 0.66 0.67 0.49 0.49 0.50 0.44 0.46 0.39 0.31 0.39 0.40 0.43 0.48 0.48 0.50 0.52 0.42 0.37 0.35 0.34 0.38 0.50 0.53 0.53 0.49 0.48 0.49 0.50 0.47 0.45 0.52 0.46 0.48 0.54 0.60 0.63 0.63 0.73 0.74 0.69 0.53 0.55 0.59 0.64 0.73 0.93 1.06 1.06 1.03 1.11 1.17 1.21 1.19 1.17 1.18 1.17 1.13 1.11
0.39 0.38 0.39 0.37 0.36 0.36 0.34 0.32 0.30 0.27 0.28 0.28 0.28 0.31 0.34 0.36 0.39 0.43 0.47 0.50 0.53 0.53 0.55 0.49 0.54 0.49 0.41 0.33 0.42 0.69 0.64 0.49 0.45 0.49 0.52 0.45 0.51 0.43 0.37 0.37 0.42 0.39 0.41 0.44 0.50 0.53 0.48 0.38 0.31 0.32 0.34 0.37 0.37 0.40 0.44 0.41 0.35 0.41 0.39 0.39 0.42 0.44 0.43 0.45 0.52 0.60 0.65 0.68 0.69 0.64 0.54 0.51 0.55 0.66 0.77 0.96 1.04 1.02 1.04 1.10 1.20 1.23 1.18 1.20 1.16 1.17 1.24 1.22
0.39 0.37 0.37 0.36 0.35 0.34 0.33 0.31 0.29 0.28 0.28 0.29 0.30 0.31 0.37 0.41 0.43 0.44 0.48 0.63 0.58 0.55 0.51 0.50 0.63 0.62 0.30 0.52 0.61 0.45 0.47 0.55 0.56 0.48 0.46 0.45 0.55 0.59 0.57 0.50 0.42 0.38 0.40 0.44 0.45 0.50 0.50 0.40 0.37 0.33 0.33 0.29 0.30 0.35 0.35 0.33 0.29 0.31 0.37 0.34 0.40 0.40 0.42 0.38 0.51 0.56 0.64 0.65 0.61 0.65 0.58 0.56 0.59 0.65 0.74 0.91 1.03 0.95 0.98 1.12 1.16 1.20 1.21 1.24 1.21 1.22 1.20 1.17
0.37 0.37 0.35 0.36 0.34 0.33 0.32 0.30 0.28 0.28 0.30 0.31 0.32 0.32 0.40 0.43 0.44 0.43 0.55 0.68 0.73 0.56 0.55 0.59 0.60 0.52 0.34 0.42 0.30 0.36 0.51 0.51 0.54 0.51 0.46 0.49 0.58 0.61 0.60 0.49 0.47 0.47 0.48 0.42 0.46 0.39 0.47 0.40 0.40 0.28 0.27 0.26 0.28 0.28 0.27 0.22 0.24 0.29 0.31 0.31 0.34 0.39 0.42 0.42 0.42 0.52 0.58 0.64 0.63 0.64 0.58 0.56 0.65 0.69 0.76 0.96 0.98 0.91 0.96 1.12 1.25 1.19 1.18 1.25 1.22 1.20 1.18 1.18
0.37 0.36 0.35 0.36 0.34 0.32 0.32 0.29 0.28 0.29 0.31 0.34 0.34 0.34 0.45 0.43 0.41 0.53 0.56 0.67 0.57 0.48 0.29 0.34 0.36 0.16 0.24 0.42 0.56 0.46 0.44 0.50 0.52 0.49 0.45 0.48 0.47 0.47 0.45 0.53 0.52 0.45 0.42 0.35 0.38 0.35 0.43 0.41 0.39 0.31 0.23 0.22 0.22 0.26 0.27 0.27 0.31 0.31 0.33 0.32 0.34 0.34 0.38 0.40 0.46 0.54 0.58 0.60 0.61 0.63 0.60 0.54 0.59 0.68 0.79 0.91 1.02 1.00 1.02 1.11 1.13 1.14 1.17 1.25 1.24 1.21 1.25 1.19
0.38 0.37 0.36 0.36 0.34 0.32 0.31 0.29 0.27 0.29 0.32 0.35 0.33 0.33 0.26 0.18 0.16 0.43 0.45 0.31 0.26 0.32 0.44 0.49 0.58 0.45 0.34 0.41 0.44 0.56 0.52 0.50 0.43 0.46 0.47 0.49 0.41 0.33 0.37 0.45 0.45 0.44 0.39 0.30 0.37 0.33 0.45 0.32 0.26 0.22 0.23 0.26 0.26 0.29 0.33 0.33 0.31 0.32 0.34 0.34 0.34 0.35 0.38 0.43 0.48 0.51 0.59 0.57 0.59 0.61 0.60 0.58 0.56 0.60 0.73 0.81 0.88 0.95 1.01 1.04 1.10 1.15 1.17 1.16 1.16 1.22 1.24 1.18
0.37 0.37 0.37 0.36 0.35 0.31 0.30 0.28 0.28 0.30 0.33 0.38 0.37 0.27 0.16 0.17 0.12 0.11 0.17 0.18 0.22 0.23 0.21 0.23 0.33 0.32 0.36 0.45 0.50 0.47 0.42 0.42 0.46 0.43 0.43 0.49 0.44 0.34 0.32 0.41 0.42 0.34 0.35 0.37 0.36 0.42 0.39 0.30 0.24 0.27 0.29 0.32 0.34 0.33 0.36 0.36 0.30 0.26 0.30 0.32 0.32 0.35 0.34 0.40 0.45 0.50 0.56 0.53 0.54 0.59 0.58 0.56 0.56 0.60 0.71 0.72 0.77 0.77 0.90 0.88 0.99 1.05 1.09 1.12 1.14 1.22 1.27 1.27
0.36 0.36 0.37 0.36 0.35 0.32 0.28 0.28 0.30 0.31 0.34 0.38 0.41 0.23 0.21 0.22 0.26 0.30 0.28 0.14 0.14 0.20 0.20 0.19 0.20 0.25 0.26 0.27 0.37 0.41 0.42 0.39 0.41 0.43 0.42 0.42 0.42 0.33 0.30 0.34 0.37 0.32 0.37 0.41 0.38 0.34 0.25 0.21 0.25 0.30 0.36 0.34 0.37 0.38 0.34 0.32 0.27 0.24 0.25 0.29 0.31 0.33 0.38 0.43 0.45 0.49 0.55 0.54 0.51 0.55 0.54 0.56 0.57 0.54 0.64 0.77 0.72 0.76 0.88 0.83 0.91 1.02 1.06 1.17 1.25 1.26 1.24 1.23
0.36 0.35 0.34 0.36 0.34 0.32 0.29 0.28 0.32 0.32 0.32 0.34 0.34 0.23 0.20 0.25 0.29 0.34 0.31 0.24 0.18 0.17 0.20 0.20 0.18 0.15 0.17 0.22 0.30 0.36 0.28 0.32 0.34 0.41 0.39 0.38 0.39 0.37 0.32 0.29 0.33 0.35 0.38 0.40 0.29 0.26 0.21 0.19 0.27 0.33 0.34 0.31 0.27 0.30 0.30 0.25 0.25 0.25 0.23 0.24 0.26 0.33 0.35 0.33 0.39 0.46 0.45 0.49 0.49 0.51 0.50 0.53 0.55 0.56 0.56 0.58 0.69 0.70 0.84 0.96 0.98 1.04 1.06 1.12 1.19 1.15 1.13 1.14
0.37 0.37 0.35 0.34 0.34 0.31 0.28 0.30 0.35 0.30 0.29 0.34 0.35 0.24 0.24 0.27 0.28 0.34 0.27 0.16 0.12 0.14 0.14 0.13 0.16 0.17 0.14 0.13 0.19 0.27 0.26 0.29 0.36 0.37 0.47 0.36 0.33 0.39 0.33 0.29 0.30 0.33 0.32 0.36 0.31 0.25 0.20 0.23 0.27 0.32 0.29 0.26 0.22 0.22 0.24 0.23 0.20 0.24 0.26 0.23 0.23 0.27 0.32 0.35 0.37 0.40 0.46 0.50 0.49 0.49 0.46 0.45 0.48 0.49 0.49 0.55 0.69 0.75 0.81 1.02 1.01 1.08 1.13 1.14 1.15 1.13 1.15 1.19
0.38 0.37 0.36 0.34 0.32 0.33 0.26 0.34 0.31 0.17 0.24 0.38 0.29 0.27 0.24 0.27 0.29 0.34 0.24 0.20 0.19 0.17 0.23 0.25 0.21 0.17 0.17 0.19 0.18 0.18 0.24 0.29 0.34 0.42 0.45 0.40 0.33 0.34 0.31 0.33 0.30 0.28 0.31 0.35 0.33 0.26 0.25 0.28 0.29 0.26 0.25 0.22 0.21 0.20 0.21 0.25 0.22 0.22 0.24 0.25 0.23 0.25 0.30 0.33 0.37 0.36 0.36 0.39 0.47 0.47 0.41 0.40 0.48 0.49 0.49 0.51 0.54 0.53 0.69 0.90 0.92 1.07 1.10 1.12 1.10 1.12 1.22 1.32
0.38 0.37 0.36 0.35 0.32 0.32 0.28 0.27 0.17 0.24 0.33 0.30 0.28 0.25 0.24 0.25 0.31 0.29 0.30 0.19 0.11 0.16 0.18 0.18 0.23 0.15 0.21 0.17 0.16 0.16 0.21 0.20 0.30 0.39 0.44 0.43 0.39 0.33 0.34 0.29 0.30 0.25 0.30 0.32 0.30 0.27 0.24 0.30 0.32 0.30 0.25 0.23 0.21 0.20 0.22 0.24 0.24 0.22 0.21 0.23 0.24 0.25 0.26 0.31 0.32 0.32 0.30 0.32 0.39 0.46 0.39 0.37 0.46 0.47 0.50 0.51 0.50 0.50 0.59 0.91 0.90 1.02 1.02 1.04 1.03 1.09 1.16 1.17
0.38 0.37 0.36 0.34 0.32 0.35 0.20 0.15 0.28 0.36 0.30 0.25 0.24 0.24 0.23 0.25 0.30 0.29 0.24 0.20 0.14 0.29 0.19 0.27 0.20 0.24 0.22 0.19 0.16 0.18 0.12 0.14 0.25 0.32 0.41 0.45 0.37 0.36 0.28 0.28 0.28 0.30 0.32 0.34 0.31 0.25 0.27 0.26 0.29 0.31 0.31 0.26 0.22 0.21 0.25 0.25 0.23 0.22 0.26 0.24 0.21 0.23 0.25 0.27 0.28 0.28 0.29 0.33 0.36 0.42 0.41 0.35 0.37 0.44 0.48 0.48 0.48 0.51 0.56 0.73 0.84 0.98 0.99 1.02 1.06 1.10 1.11 1.14
0.38 0.36 0.34 0.34 0.31 0.35 0.28 0.30 0.33 0.34 0.26 0.25 0.26 0.26 0.24 0.26 0.28 0.32 0.29 0.11 0.09 0.27 0.26 0.25 0.27 0.35 0.29 0.24 0.21 0.15 0.14 0.23 0.17 0.20 0.34 0.45 0.43 0.35 0.30 0.27 0.26 0.27 0.30 0.31 0.21 0.27 0.29 0.24 0.26 0.28 0.28 0.27 0.23 0.24 0.29 0.29 0.24 0.22 0.24 0.24 0.22 0.19 0.23 0.26 0.25 0.26 0.28 0.28 0.28 0.33 0.40 0.37 0.34 0.38 0.46 0.48 0.43 0.43 0.43 0.52 0.68 0.86 0.88 0.98 1.04 1.03 1.03 1.07
0.37 0.35 0.33 0.35 0.31 0.33 0.38 0.36 0.36 0.34 0.28 0.28 0.27 0.25 0.25 0.26 0.26 0.24 0.20 0.09 0.23 0.22 0.35 0.26 0.40 0.34 0.33 0.30 0.24 0.21 0.17 0.22 0.19 0.23 0.26 0.41 0.43 0.38 0.30 0.29 0.28 0.30 0.34 0.32 0.27 0.31 0.32 0.30 0.27 0.28 0.28 0.25 0.27 0.26 0.28 0.28 0.23 0.23 0.25 0.25 0.22 0.21 0.18 0.19 0.20 0.21 0.23 0.22 0.20 0.26 0.28 0.25 0.31 0.38 0.39 0.40 0.43 0.43 0.45 0.47 0.53 0.81 0.87 0.97 1.00 1.02 1.03 1.08
0.37 0.34 0.34 0.35 0.31 0.31 0.29 0.37 0.43 0.36 0.30 0.28 0.27 0.25 0.24 0.26 0.23 0.17 0.19 0.08 0.24 0.20 0.28 0.32 0.28 0.30 0.31 0.27 0.26 0.26 0.21 0.19 0.21 0.26 0.28 0.29 0.38 0.41 0.36 0.37 0.30 0.29 0.31 0.34 0.32 0.34 0.35 0.37 0.35 0.28 0.27 0.30 0.30 0.27 0.27 0.27 0.25 0.26 0.25 0.23 0.22 0.20 0.18 0.17 0.15 0.16 0.17 0.15 0.16 0.21 0.26 0.28 0.25 0.32 0.34 0.34 0.37 0.44 0.51 0.51 0.54 0.81 0.90 1.03 1.08 1.08 1.10 1.14
0.36 0.33 0.33 0.38 0.30 0.31 0.33 0.35 0.32 0.28 0.31 0.28 0.26 0.24 0.24 0.21 0.17 0.15 0.12 0.22 0.21 0.33 0.35 0.33 0.32 0.32 0.31 0.29 0.25 0.29 0.27 0.24 0.20 0.26 0.26 0.31 0.35 0.37 0.36 0.32 0.34 0.28 0.28 0.31 0.30 0.32 0.34 0.35 0.34 0.31 0.31 0.34 0.34 0.29 0.28 0.28 0.26 0.24 0.22 0.21 0.21 0.17 0.17 0.17 0.16 0.15 0.11 0.10 0.14 0.19 0.22 0.27 0.23 0.26 0.30 0.36 0.44 0.45 0.44 0.46 0.50 0.81 0.86 0.93 1.05 1.07 1.10 1.13
0.35 0.32 0.35 0.37 0.39 0.46 0.31 0.29 0.29 0.29 0.29 0.28 0.26 0.23 0.18 0.12 0.24 0.13 0.10 0.24 0.13 0.34 0.31 0.33 0.34 0.32 0.32 0.34 0.32 0.30 0.29 0.28 0.24 0.24 0.27 0.26 0.30 0.32 0.31 0.26 0.26 0.22 0.22 0.23 0.24 0.31 0.29 0.29 0.32 0.34 0.33 0.32 0.33 0.29 0.26 0.25 0.25 0.23 0.23 0.22 0.16 0.14 0.13 0.12 0.15 0.12 0.09 0.08 0.12 0.15 0.20 0.21 0.20 0.22 0.27 0.31 0.37 0.42 0.46 0.51 0.69 0.73 0.86 1.01 0.99 1.04 1.02 1.01
0.35 0.33 0.39 0.42 0.44 0.46 0.45 0.38 0.29 0.28 0.29 0.28 0.23 0.22 0.18 0.15 0.09 0.15 0.19 0.21 0.18 0.33 0.29 0.38 0.32 0.31 0.31 0.28 0.27 0.31 0.34 0.26 0.26 0.26 0.30 0.30 0.28 0.33 0.33 0.30 0.32 0.25 0.18 0.23 0.24 0.26 0.26 0.29 0.31 0.31 0.32 0.32 0.33 0.27 0.26 0.22 0.22 0.22 0.21 0.19 0.14 0.12 0.11 0.10 0.13 0.15 0.15 0.14 0.16 0.16 0.17 0.15 0.17 0.21 0.23 0.25 0.31 0.39 0.47 0.49 0.53 0.72 0.76 0.90 0.91 0.98 1.03 0.98
0.36 0.36 0.42 0.48 0.47 0.45 0.45 0.30 0.27 0.29 0.27 0.26 0.21 0.18 0.16 0.11 0.09 0.14 0.13 0.18 0.28 0.32 0.31 0.32 0.32 0.33 0.32 0.27 0.27 0.31 0.28 0.32 0.29 0.27 0.31 0.30 0.28 0.28 0.32 0.32 0.33 0.29 0.27 0.28 0.24 0.25 0.22 0.23 0.25 0.28 0.26 0.33 0.31 0.31 0.29 0.24 0.23 0.23 0.22 0.19 0.15 0.14 0.13 0.11 0.12 0.11 0.12 0.16 0.17 0.17 0.16 0.12 0.12 0.13 0.21 0.23 0.24 0.34 0.43 0.48 0.51 0.68 0.81 0.86 0.94 0.91 0.98 1.00
0.40 0.43 0.51 0.58 0.52 0.46 0.32 0.28 0.28 0.29 0.26 0.24 0.20 0.17 0.11 0.11 0.14 0.12 0.14 0.23 0.26 0.26 0.26 0.30 0.29 0.31 0.29 0.29 0.28 0.29 0.29 0.29 0.34 0.31 0.29 0.28 0.26 0.25 0.28 0.28 0.31 0.34 0.31 0.26 0.29 0.28 0.26 0.24 0.26 0.31 0.32 0.34 0.28 0.31 0.34 0.31 0.28 0.26 0.23 0.20 0.17 0.14 0.20 0.16 0.17 0.14 0.14 0.14 0.14 0.16 0.12 0.12 0.15 0.19 0.21 0.20 0.21 0.22 0.34 0.41 0.46 0.57 0.77 0.85 0.94 0.93 0.94 0.89
0.43 0.50 0.56 0.58 0.38 0.40 0.32 0.28 0.28 0.29 0.28 0.24 0.20 0.16 0.13 0.15 0.13 0.16 0.25 0.29 0.24 0.24 0.23 0.24 0.25 0.26 0.27 0.27 0.28 0.25 0.31 0.29 0.33 0.33 0.31 0.29 0.28 0.27 0.29 0.33 0.31 0.33 0.32 0.25 0.30 0.26 0.28 0.24 0.30 0.31 0.33 0.33 0.31 0.31 0.32 0.34 0.22 0.24 0.23 0.16 0.15 0.20 0.19 0.20 0.21 0.21 0.18 0.15 0.13 0.16 0.16 0.16 0.16 0.16 0.19 0.20 0.19 0.21 0.24 0.29 0.36 0.64 0.72 0.78 0.79 0.80 0.89 0.92
0.41 0.52 0.49 0.50 0.50 0.44 0.33 0.29 0.30 0.33 0.36 0.29 0.21 0.17 0.23 0.25 0.27 0.30 0.30 0.29 0.30 0.26 0.21 0.17 0.20 0.23 0.22 0.21 0.22 0.25 0.28 0.33 0.34 0.31 0.29 0.31 0.27 0.30 0.31 0.33 0.38 0.34 0.35 0.34 0.29 0.35 0.26 0.24 0.31 0.30 0.28 0.32 0.37 0.35 0.35 0.33 0.30 0.26 0.19 0.18 0.21 0.22 0.22 0.19 0.17 0.20 0.18 0.14 0.14 0.15 0.14 0.16 0.16 0.14 0.17 0.18 0.18 0.21 0.23 0.25 0.27 0.39 0.70 0.75 0.72 0.70 0.79 0.86
0.43 0.50 0.52 0.55 0.53 0.41 0.33 0.31 0.37 0.40 0.37 0.28 0.21 0.22 0.27 0.22 0.30 0.30 0.34 0.31 0.31 0.27 0.21 0.19 0.20 0.25 0.21 0.22 0.21 0.26 0.30 0.31 0.34 0.33 0.31 0.32 0.27 0.35 0.34 0.34 0.39 0.38 0.36 0.38 0.33 0.31 0.33 0.27 0.31 0.30 0.30 0.32 0.37 0.37 0.35 0.34 0.31 0.27 0.24 0.26 0.19 0.16 0.16 0.19 0.18 0.15 0.16 0.16 0.17 0.18 0.19 0.18 0.19 0.18 0.19 0.17 0.16 0.18 0.23 0.25 0.25 0.34 0.50 0.69 0.79 0.77 0.71 0.78
0.47 0.49 0.39 0.43 0.43 0.38 0.34 0.35 0.41 0.40 0.33 0.22 0.19 0.17 0.22 0.24 0.28 0.28 0.30 0.29 0.28 0.25 0.20 0.21 0.21 0.24 0.25 0.24 0.25 0.28 0.31 0.27 0.34 0.34 0.32 0.33 0.30 0.42 0.39 0.41 0.41 0.41 0.41 0.39 0.33 0.34 0.35 0.28 0.31 0.33 0.29 0.31 0.35 0.35 0.27 0.28 0.31 0.29 0.30 0.27 0.26 0.22 0.19 0.17 0.16 0.17 0.19 0.19 0.18 0.20 0.23 0.19 0.22 0.22 0.22 0.21 0.19 0.20 0.23 0.26 0.26 0.32 0.63 0.69 0.78 0.81 0.79 0.84
0.43 0.39 0.38 0.45 0.45 0.38 0.32 0.40 0.39 0.38 0.26 0.18 0.20 0.19 0.22 0.19 0.23 0.27 0.30 0.29 0.26 0.26 0.22 0.20 0.20 0.21 0.25 0.28 0.28 0.27 0.31 0.31 0.34 0.36 0.35 0.38 0.38 0.49 0.42 0.43 0.41 0.44 0.46 0.45 0.40 0.36 0.33 0.33 0.27 0.32 0.33 0.32 0.27 0.30 0.27 0.29 0.25 0.23 0.24 0.25 0.26 0.23 0.24 0.22 0.20 0.15 0.18 0.19 0.21 0.20 0.18 0.18 0.20 0.26 0.25 0.25 0.24 0.25 0.25 0.27 0.27 0.29 0.67 0.62 0.75 0.82 0.80 0.76
0.52 0.43 0.42 0.46 0.44 0.32 0.35 0.40 0.33 0.24 0.22 0.23 0.25 0.22 0.20 0.18 0.20 0.21 0.26 0.28 0.29 0.31 0.26 0.22 0.21 0.20 0.24 0.25 0.26 0.30 0.32 0.34 0.34 0.31 0.34 0.39 0.39 0.38 0.48 0.46 0.45 0.43 0.44 0.43 0.37 0.38 0.32 0.33 0.28 0.34 0.32 0.30 0.27 0.30 0.31 0.31 0.29 0.24 0.21 0.22 0.24 0.21 0.18 0.16 0.15 0.19 0.17 0.17 0.19 0.20 0.20 0.24 0.27 0.28 0.28 0.29 0.30 0.29 0.29 0.27 0.28 0.27 0.36 0.65 0.82 0.77 0.71 0.66
0.50 0.34 0.33 0.45 0.43 0.35 0.34 0.30 0.26 0.27 0.25 0.23 0.21 0.22 0.21 0.24 0.21 0.23 0.23 0.28 0.28 0.26 0.28 0.24 0.24 0.23 0.26 0.28 0.30 0.34 0.35 0.35 0.38 0.34 0.33 0.37 0.42 0.43 0.48 0.53 0.48 0.48 0.45 0.41 0.40 0.39 0.37 0.37 0.33 0.31 0.36 0.32 0.30 0.32 0.34 0.35 0.34 0.28 0.24 0.23 0.25 0.23 0.21 0.18 0.14 0.16 0.18 0.16 0.19 0.21 0.21 0.29 0.33 0.30 0.28 0.29 0.30 0.30 0.30 0.27 0.29 0.28 0.31 0.43 0.58 0.73 0.75 0.69
0.44 0.39 0.47 0.43 0.44 0.38 0.33 0.29 0.26 0.24 0.23 0.25 0.27 0.27 0.26 0.23 0.22 0.24 0.24 0.27 0.26 0.29 0.27 0.26 0.25 0.23 0.24 0.28 0.33 0.35 0.37 0.36 0.38 0.36 0.35 0.38 0.41 0.47 0.48 0.51 0.50 0.48 0.50 0.47 0.44 0.44 0.50 0.42 0.34 0.34 0.39 0.36 0.34 0.34 0.35 0.36 0.35 0.30 0.26 0.25 0.24 0.22 0.21 0.19 0.18 0.20 0.19 0.18 0.15 0.16 0.17 0.27 0.36 0.35 0.34 0.27 0.31 0.34 0.33 0.29 0.30 0.28 0.29 0.36 0.52 0.58 0.70 0.70
0.47 0.46 0.45 0.44 0.45 0.41 0.34 0.26 0.25 0.25 0.28 0.27 0.28 0.26 0.28 0.26 0.24 0.25 0.26 0.25 0.25 0.26 0.27 0.26 0.26 0.26 0.23 0.31 0.34 0.33 0.38 0.33 0.40 0.38 0.38 0.42 0.40 0.53 0.54 0.52 0.51 0.45 0.46 0.47 0.44 0.52 0.37 0.37 0.35 0.33 0.33 0.38 0.30 0.33 0.33 0.35 0.34 0.30 0.25 0.23 0.23 0.25 0.25 0.23 0.22 0.22 0.20 0.20 0.18 0.15 0.14 0.22 0.33 0.37 0.37 0.33 0.33 0.34 0.34 0.31 0.32 0.34 0.32 0.36 0.42 0.47 0.62 0.70
0.58 0.53 0.42 0.43 0.43 0.40 0.33 0.32 0.27 0.29 0.28 0.26 0.26 0.22 0.25 0.24 0.26 0.29 0.27 0.25 0.26 0.28 0.28 0.27 0.27 0.27 0.25 0.29 0.29 0.34 0.35 0.36 0.37 0.42 0.41 0.43 0.49 0.54 0.52 0.52 0.53 0.49 0.50 0.55 0.54 0.58 0.44 0.45 0.41 0.32 0.30 0.27 0.23 0.23 0.24 0.26 0.27 0.29 0.27 0.24 0.24 0.23 0.23 0.23 0.18 0.20 0.19 0.24 0.23 0.18 0.16 0.26 0.32 0.32 0.32 0.31 0.30 0.31 0.36 0.34 0.33 0.37 0.36 0.36 0.42 0.55 0.71 0.72
0.53 0.36 0.42 0.40 0.43 0.40 0.38 0.38 0.33 0.30 0.27 0.27 0.24 0.25 0.26 0.24 0.26 0.29 0.26 0.28 0.29 0.30 0.28 0.28 0.30 0.31 0.28 0.27 0.28 0.32 0.33 0.37 0.36 0.37 0.40 0.46 0.47 0.50 0.51 0.51 0.50 0.49 0.50 0.53 0.55 0.56 0.44 0.45 0.44 0.43 0.40 0.36 0.33 0.31 0.35 0.35 0.31 0.27 0.25 0.24 0.23 0.23 0.23 0.24 0.23 0.20 0.19 0.24 0.25 0.24 0.22 0.29 0.27 0.29 0.28 0.26 0.26 0.21 0.27 0.32 0.33 0.37 0.49 0.59 0.79 0.64 0.71 0.75
0.61 0.43 0.41 0.37 0.42 0.39 0.34 0.36 0.34 0.34 0.28 0.31 0.24 0.27 0.24 0.24 0.25 0.26 0.33 0.25 0.31 0.28 0.26 0.25 0.29 0.27 0.28 0.27 0.27 0.30 0.34 0.31 0.37 0.39 0.43 0.45 0.50 0.50 0.53 0.51 0.51 0.53 0.54 0.51 0.56 0.51 0.46 0.39 0.42 0.43 0.44 0.49 0.59 0.53 0.43 0.39 0.32 0.29 0.28 0.25 0.24 0.23 0.22 0.22 0.21 0.19 0.25 0.25 0.25 0.30 0.35 0.31 0.32 0.32 0.31 0.29 0.27 0.23 0.21 0.26 0.30 0.44 0.56 0.61 0.65 0.64 0.69 0.80
0.50 0.53 0.52 0.52 0.40 0.34 0.34 0.33 0.37 0.34 0.34 0.33 0.29 0.30 0.26 0.25 0.28 0.24 0.28 0.30 0.28 0.28 0.24 0.27 0.29 0.32 0.31 0.29 0.28 0.25 0.30 0.32 0.33 0.33 0.42 0.43 0.44 0.46 0.46 0.52 0.54 0.54 0.51 0.52 0.55 0.49 0.45 0.39 0.43 0.45 0.45 0.50 0.53 0.57 0.53 0.48 0.44 0.34 0.30 0.27 0.24 0.24 0.23 0.21 0.22 0.25 0.26 0.24 0.27 0.34 0.36 0.38 0.40 0.40 0.37 0.34 0.29 0.24 0.25 0.26 0.27 0.39 0.61 0.57 0.60 0.54 0.58 0.74
0.64 0.61 0.56 0.60 0.45 0.44 0.41 0.38 0.36 0.35 0.33 0.34 0.32 0.30 0.26 0.29 0.26 0.25 0.25 0.26 0.27 0.27 0.29 0.23 0.26 0.29 0.29 0.30 0.28 0.26 0.30 0.28 0.27 0.36 0.37 0.40 0.40 0.42 0.42 0.46 0.50 0.52 0.50 0.50 0.52 0.54 0.48 0.41 0.42 0.45 0.46 0.50 0.51 0.52 0.54 0.49 0.41 0.38 0.32 0.28 0.26 0.25 0.24 0.23 0.24 0.25 0.26 0.28 0.31 0.37 0.37 0.40 0.42 0.41 0.37 0.35 0.31 0.28 0.28 0.32 0.31 0.32 0.51 0.60 0.61 0.52 0.50 0.64
0.56 0.56 0.51 0.58 0.54 0.47 0.45 0.40 0.36 0.36 0.34 0.37 0.31 0.29 0.32 0.30 0.25 0.28 0.30 0.28 0.22 0.24 0.30 0.26 0.27 0.27 0.27 0.27 0.27 0.25 0.28 0.33 0.35 0.31 0.37 0.40 0.40 0.41 0.41 0.45 0.47 0.51 0.51 0.48 0.50 0.52 0.46 0.43 0.48 0.45 0.44 0.46 0.49 0.50 0.51 0.50 0.47 0.40 0.41 0.33 0.28 0.26 0.26 0.26 0.25 0.25 0.26 0.30 0.31 0.33 0.36 0.36 0.44 0.43 0.38 0.36 0.36 0.32 0.30 0.36 0.39 0.42 0.49 0.53 0.56 0.54 0.45 0.51
0.68 0.71 0.68 0.54 0.44 0.45 0.45 0.42 0.39 0.36 0.32 0.34 0.34 0.33 0.32 0.28 0.28 0.34 0.28 0.30 0.28 0.26 0.29 0.26 0.27 0.25 0.26 0.26 0.26 0.27 0.31 0.32 0.36 0.39 0.41 0.43 0.38 0.43 0.39 0.44 0.52 0.46 0.47 0.45 0.47 0.46 0.48 0.45 0.48 0.44 0.37 0.41 0.46 0.46 0.48 0.49 0.49 0.43 0.40 0.39 0.32 0.29 0.27 0.28 0.27 0.26 0.25 0.26 0.30 0.31 0.38 0.36 0.43 0.45 0.43 0.38 0.37 0.35 0.35 0.44 0.51 0.49 0.48 0.41 0.38 0.43 0.44 0.56
0.71 0.74 0.72 0.61 0.45 0.48 0.43 0.45 0.43 0.39 0.32 0.37 0.35 0.35 0.33 0.31 0.31 0.32 0.28 0.34 0.34 0.31 0.31 0.31 0.30 0.26 0.24 0.24 0.24 0.28 0.33 0.33 0.35 0.40 0.42 0.43 0.46 0.44 0.44 0.47 0.50 0.48 0.46 0.45 0.46 0.42 0.45 0.43 0.41 0.41 0.35 0.37 0.46 0.47 0.46 0.47 0.46 0.41 0.39 0.40 0.39 0.36 0.31 0.31 0.31 0.30 0.28 0.30 0.29 0.29 0.34 0.50 0.47 0.46 0.44 0.44 0.39 0.37 0.38 0.40 0.43 0.43 0.45 0.41 0.34 0.36 0.44 0.62
Wind_Speed
18 18 18 19 19 19 19 20 20 20 20 20 20 19 19 19 18 18 18 17 17 17 16 16 15 15 14 14 14 14 14 15 16 16 17 18 17 16 15 15 14 15 17 18 18 17 17 17 17 16 15 13 12 11 11 11 11 9 8 7 6 5 4 5 4 3 4 4 2 2 1 1 2 2 2 4 4 4 5 4 3 6 8 8 11 14 17 18
18 19 19 19 19 20 20 20 20 20 21 20 20 20 20 20 19 19 18 18 17 17 17 16 16 15 15 14 14 14 14 15 16 18 20 20 18 17 16 16 16 16 17 18 19 19 18 18 17 17 15 13 12 12 12 11 11 10 8 8 7 6 5 5 4 3 3 3 2 3 1 1 1 2 3 4 3 4 5 4 5 8 9 10 13 14 16 18
19 19 19 20 20 20 20 21 21 21 21 21 21 21 21 20 20 19 18 18 18 18 17 17 16 16 15 14 14 13 13 14 16 18 20 21 20 19 17 16 16 16 17 18 20 20 19 18 18 17 16 14 13 13 12 11 12 11 9 8 8 7 6 7 7 5 5 4 4 3 2 3 2 1 3 4 4 4 5 5 7 9 10 11 13 14 15 18
20 20 20 20 20 21 21 21 21 21 22 22 22 22 22 21 20 20 19 19 18 18 18 17 17 16 15 15 14 13 13 14 14 14 14 16 19 20 19 18 17 17 18 18 20 20 20 19 18 18 17 15 14 14 14 12 11 11 10 9 8 8 6 8 9 7 7 7 5 3 1 3 4 2 2 4 4 4 5 6 7 8 10 12 13 14 15 16
20 21 21 21 21 21 22 22 22 22 22 22 22 22 22 22 21 20 20 19 19 19 18 18 17 17 16 15 14 12 12 10 9 9 9 12 16 19 20 20 19 18 18 19 20 21 21 20 19 18 17 15 15 15 14 14 13 11 11 10 9 9 6 6 8 8 9 8 5 2 1 3 4 3 2 3 4 4 5 6 8 9 10 12 13 14 15 15
21 22 22 22 22 22 22 23 23 23 23 22 22 22 22 22 22 21 20 20 20 19 19 18 17 17 16 15 14 13 12 10 7 6 7 9 11 16 19 20 20 19 19 20 21 21 21 20 19 19 18 16 16 16 15 15 14 12 12 11 10 11 9 7 7 9 11 8 5 3 3 5 3 2 3 3 4 5 6 7 9 9 10 11 12 13 14 15
22 22 23 23 23 23 23 24 24 23 23 23 23 23 22 22 22 21 21 21 20 19 19 18 17 17 16 15 14 14 14 15 13 10 9 9 9 12 16 19 20 20 21 21 21 21 21 21 21 20 18 17 17 17 16 15 16 14 13 12 11 11 11 11 9 8 10 8 6 4 3 5 3 2 4 3 3 5 7 8 10 9 10 11 12 13 14 15
23 23 24 24 24 24 24 24 24 24 24 24 24 23 23 23 22 22 21 21 20 20 19 18 17 17 16 15 15 15 16 17 17 14 13 12 11 12 14 17 20 21 21 22 22 22 22 22 22 20 18 17 17 17 17 16 16 16 15 14 13 12 12 12 10 8 10 9 7 6 5 5 4 3 4 4 4 5 7 9 10 9 10 11 12 13 13 14
24 24 25 25 25 25 25 26 26 25 25 25 24 24 24 23 23 22 22 21 20 20 19 18 18 17 16 16 16 16 17 17 17 16 14 13 13 13 14 16 20 21 21 22 23 22 22 22 23 21 19 18 18 17 17 17 15 16 16 16 15 14 13 13 12 11 12 10 8 8 7 6 5 4 4 6 6 6 8 9 10 9 9 11 11 12 13 14
25 26 26 26 26 26 26 27 27 26 26 26 25 25 25 24 23 23 22 21 20 20 19 19 18 17 17 17 17 17 16 16 16 16 15 14 14 14 15 15 19 21 21 22 23 23 22 21 22 22 20 19 19 18 18 17 16 16 16 16 17 17 15 13 13 13 13 12 10 9 8 7 7 6 5 7 8 8 9 10 10 9 9 10 11 12 13 14
26 27 27 27 27 27 27 28 27 27 27 27 26 26 25 25 24 23 23 22 21 20 19 19 18 18 18 18 19 18 16 14 13 15 15 15 15 16 16 15 18 21 21 22 23 23 23 22 21 21 20 20 19 19 19 19 17 16 17 17 17 18 17 15 14 14 13 12 12 11 10 9 8 7 6 8 10 10 10 11 11 10 9 10 10 11 12 13
28 28 28 28 28 28 28 29 28 28 28 28 27 27 26 25 25 24 24 22 21 21 20 19 18 18 19 19 21 21 18 15 14 15 15 15 16 16 17 16 17 20 21 21 22 23 23 23 22 22 20 19 20 18 18 20 20 18 18 17 16 16 17 17 16 15 14 13 12 11 10 10 10 9 7 8 12 11 11 11 11 10 10 9 9 10 11 12
28 29 29 29 29 29 29 29 29 29 29 28 28 27 27 26 25 25 24 23 22 21 21 20 19 19 20 20 22 23 21 19 19 17 16 17 17 17 18 17 17 19 20 21 21 22 23 23 23 23 22 20 20 19 16 16 18 19 18 16 16 16 16 17 17 17 16 14 13 11 10 9 10 11 9 9 12 12 11 11 10 10 10 10 9 9 10 12
29 29 29 29 29 30 30 30 30 30 30 29 29 28 27 27 26 26 25 24 23 22 21 20 19 20 20 21 22 23 23 22 23 22 20 19 19 19 20 19 19 19 19 21 21 22 23 23 24 23 23 23 21 20 19 16 17 18 18 18 17 16 15 16 17 18 17 15 15 13 10 9 9 12 12 11 13 13 11 11 11 10 10 10 10 9 10 11
30 30 30 30 30 30 31 31 31 31 30 30 30 29 28 28 27 26 25 24 24 23 22 21 21 20 21 23 23 23 23 23 24 24 23 21 20 20 21 21 21 20 19 20 20 20 22 23 24 23 23 24 23 21 20 19 18 18 18 18 17 17 16 16 17 18 18 16 16 15 11 10 10 10 13 12 14 13 11 12 11 11 10 11 11 10 10 10
31 31 31 31 31 31 31 31 31 31 30 31 31 30 29 29 27 26 25 25 24 23 22 21 21 22 22 21 21 21 23 24 24 24 24 23 22 20 21 22 22 21 20 20 20 20 22 23 24 24 23 23 24 22 19 19 20 19 19 18 17 18 16 15 16 18 19 16 17 16 13 10 9 11 13 13 14 12 12 13 12 11 11 11 11 10 10 10
31 32 32 32 32 32 32 32 32 31 31 31 31 30 29 28 27 26 25 24 24 23 23 23 22 23 24 22 20 21 22 24 24 24 24 24 23 21 21 22 22 22 22 21 21 21 21 23 23 23 24 23 23 23 21 21 20 19 19 19 18 18 17 16 15 16 19 18 17 17 15 12 10 12 13 13 14 12 12 13 11 11 11 11 11 11 11 11
32 32 32 32 33 33 33 33 32 32 31 31 31 30 29 27 26 26 25 24 23 23 24 25 24 23 23 23 23 22 21 23 24 24 24 24 23 23 22 22 21 22 22 21 22 22 21 22 22 22 24 24 24 24 24 23 20 18 19 19 18 19 18 18 15 15 18 19 18 18 17 15 12 12 13 15 14 12 13 13 12 12 12 11 11 11 12 11
32 32 32 33 33 33 33 33 33 32 31 31 30 29 27 25 25 25 24 24 25 25 24 24 25 24 21 21 23 24 22 20 23 24 24 24 24 23 22 22 22 22 22 21 22 23 21 20 22 23 24 25 26 27 26 24 22 20 20 20 19 19 19 19 17 16 17 18 19 19 17 17 16 14 15 16 13 12 13 13 13 13 13 12 11 12 12 12
32 33 33 33 33 33 33 33 32 32 31 29 29 28 25 24 24 25 25 27 29 29 30 29 29 29 28 26 23 22 22 21 23 25 25 25 25 24 23 22 23 23 23 21 21 23 22 21 23 24 24 26 27 28 27 26 25 23 21 21 21 21 20 19 19 18 18 18 19 21 20 19 18 17 18 17 16 15 15 14 14 14 14 13 13 12 13 13
33 34 34 34 34 34 33 33 32 31 30 29 28 26 24 24 25 27 29 31 32 32 34 35 34 33 32 31 27 23 22 23 24 25 26 26 26 25 24 24 24 23 23 23 22 22 23 24 24 25 25 26 27 28 28 27 27 26 23 21 21 21 20 20 20 19 19 18 19 21 21 21 20 19 19 19 18 18 17 16 16 17 15 15 15 14 13 13
34 34 35 35 35 35 34 33 32 31 29 28 27 25 24 25 26 28 30 32 33 33 35 36 36 36 33 34 34 29 26 25 26 26 27 27 28 26 25 25 25 23 24 24 23 22 24 25 25 25 24 25 26 27 29 29 28 26 25 23 21 21 20 20 21 20 20 19 19 21 21 21 22 20 19 21 19 18 19 19 18 18 17 15 16 15 13 13
35 35 36 35 36 36 35 33 33 31 29 27 26 24 25 27 28 29 30 32 33 34 35 36 36 36 34 34 35 33 31 28 27 28 29 29 29 28 26 26 26 25 25 27 26 24 23 23 24 25 24 26 27 27 28 28 27 26 26 24 23 21 20 19 20 21 21 19 18 20 20 20 21 20 20 21 21 19 19 20 19 18 17 16 16 16 15 15
35 35 35 36 36 36 35 33 32 30 29 28 27 25 27 28 28 29 31 32 33 32 34 37 36 36 35 33 33 34 33 31 29 29 30 31 30 29 28 27 27 27 27 28 29 27 24 21 22 26 26 26 27 27 27 26 26 27 27 26 24 23 22 20 19 21 22 21 20 19 18 19 20 20 20 19 20 19 18 21 20 18 18 18 17 16 16 17
36 36 36 36 35 36 35 32 29 29 30 28 26 27 29 28 28 29 30 31 31 30 31 33 34 34 34 32 33 34 33 33 32 31 31 33 32 29 28 27 27 28 29 30 29 28 26 23 22 25 27 27 26 26 27 26 24 26 28 28 27 25 23 22 21 20 21 23 23 21 20 19 21 22 21 20 20 19 18 20 20 18 19 19 18 17 17 17
37 36 36 36 36 36 34 29 28 30 30 28 27 29 29 28 28 29 29 29 30 28 26 27 28 29 31 32 33 32 32 34 34 32 32 34 34 30 28 28 27 28 29 28 27 26 26 26 25 24 25 27 27 26 27 27 24 24 26 27 28 27 25 24 23 22 21 22 23 24 22 20 21 23 23 22 22 21 19 21 21 21 21 19 18 18 17 17
37 37 37 37 36 35 31 29 30 31 29 29 30 30 30 28 28 28 26 26 26 22 21 22 23 24 27 30 32 32 30 29 32 35 34 34 34 33 31 30 28 28 28 26 26 26 27 28 28 26 25 26 26 25 25 27 25 22 22 25 28 29 27 25 24 22 21 21 22 25 25 22 22 22 22 23 23 21 21 23 22 22 23 21 19 19 18 18
37 37 37 36 36 34 31 30 31 30 29 31 32 31 30 29 28 26 23 22 20 18 19 19 21 23 24 28 32 33 29 25 28 35 36 35 35 34 33 33 30 29 29 28 28 27 26 29 30 28 26 24 25 25 25 26 26 22 21 23 25 27 28 26 24 22 21 21 22 24 25 23 22 21 21 24 25 24 23 24 23 23 24 23 21 20 19 19
37 37 36 36 35 33 31 30 30 30 31 32 32 31 30 29 27 23 22 23 19 17 19 20 20 22 23 25 30 33 32 28 26 29 35 37 37 35 33 33 32 30 31 32 30 26 25 28 30 29 27 25 24 25 25 26 25 23 22 22 22 24 27 27 25 23 22 22 24 24 24 22 21 20 20 22 24 24 24 24 24 24 24 24 23 22 20 19
37 36 35 35 33 31 30 30 30 32 33 33 32 31 30 28 25 23 23 23 19 16 18 19 18 20 23 25 29 32 33 32 28 27 33 37 37 36 33 33 33 31 31 33 32 30 27 26 28 29 28 26 24 25 26 26 24 23 23 22 20 21 22 24 25 24 23 24 26 26 25 22 21 20 19 19 21 22 22 22 23 25 24 23 23 22 21 20
37 36 35 33 30 30 30 29 31 33 33 33 32 31 29 25 24 24 23 21 19 17 17 17 16 19 23 25 27 30 32 33 31 29 31 34 36 36 34 33 33 32 31 32 33 32 30 28 27 29 29 27 25 25 25 26 26 23 22 22 20 19 20 20 22 24 24 23 25 27 26 24 23 22 20 19 20 22 21 19 21 25 24 22 23 22 21 21
37 36 34 31 29 29 29 29 32 33 32 32 31 28 25 23 23 25 24 22 20 17 17 19 20 21 24 25 26 28 29 31 33 31 31 33 34 36 36 34 33 33 32 32 31 31 32 32 28 27 30 29 26 25 25 26 26 25 23 22 21 19 19 19 19 21 22 20 21 24 26 25 24 22 22 22 20 21 23 21 21 24 24 24 24 23 22 22
37 36 32 30 29 28 28 30 32 32 31 31 28 25 23 23 23 24 26 23 19 18 21 23 24 25 26 26 26 26 27 29 32 32 32 34 35 35 38 37 35 34 32 30 30 29 30 32 32 30 29 31 30 26 26 26 26 26 25 24 23 20 18 18 18 18 19 18 20 23 24 25 24 22 23 25 22 20 23 25 25 26 26 25 25 23 22 23
36 33 29 28 28 27 27 30 31 31 30 28 25 23 23 24 23 24 25 24 21 23 25 25 26 27 27 27 26 26 25 26 30 32 31 33 35 34 36 39 39 36 31 29 29 30 29 30 34 34 28 30 33 30 27 25 25 27 26 24 24 22 18 17 17 17 17 17 20 23 22 22 21 19 22 25 25 23 21 24 26 27 27 26 25 24 23 24
34 30 27 27 26 25 27 29 29 29 28 26 24 22 22 22 22 21 21 21 23 26 27 28 28 27 27 27 26 27 27 25 28 32 32 33 34 35 35 37 40 38 33 31 29 30 32 30 32 34 30 29 32 31 28 26 25 26 26 26 26 24 20 17 17 19 18 17 18 21 21 20 19 18 20 22 26 27 25 23 23 25 28 27 24 24 23 24
32 27 26 25 23 24 27 28 28 27 26 24 22 21 20 20 19 18 18 20 22 24 27 27 27 26 26 25 23 23 24 25 28 30 32 34 35 35 35 34 38 40 36 33 29 28 30 30 29 33 34 32 32 32 31 28 24 24 27 28 26 24 22 19 17 18 19 18 17 19 20 19 19 19 20 21 23 25 26 26 24 23 27 27 25 24 24 24
29 26 26 24 22 25 27 28 27 25 23 21 20 19 19 20 20 19 20 21 22 24 24 24 25 25 24 23 21 19 18 21 26 27 28 32 33 34 36 34 35 40 40 35 31 28 28 28 29 34 36 34 31 32 33 32 26 24 27 27 24 23 23 21 18 16 17 17 16 18 20 19 18 18 18 21 22 23 24 26 26 25 27 28 26 24 24 25
28 27 25 23 23 25 27 27 25 24 22 20 19 18 18 19 21 21 21 22 23 24 23 23 24 24 24 23 21 20 18 18 22 24 25 27 27 27 30 32 32 36 40 39 34 30 28 25 27 33 36 34 31 30 32 34 33 27 25 25 25 24 24 22 20 17 16 16 14 16 17 17 17 16 17 20 22 22 22 24 26 25 26 27 26 24 25 25
27 26 23 21 23 26 26 25 24 22 21 20 19 17 16 18 20 21 22 23 23 24 24 24 25 25 25 23 21 21 21 20 19 20 22 22 21 21 22 25 27 28 33 38 37 33 31 25 23 29 34 33 31 32 32 34 35 31 25 25 26 25 23 23 22 18 16 15 14 14 14 15 16 16 16 18 19 20 21 22 25 25 24 25 25 25 25 24
26 24 20 22 25 26 26 25 22 20 19 19 19 18 18 18 18 19 21 22 22 23 24 24 25 27 26 24 23 23 23 23 21 20 21 20 17 18 20 22 24 24 27 33 36 35 33 29 24 26 31 33 33 35 35 33 34 34 29 27 27 25 23 22 22 21 19 15 13 12 12 13 15 16 17 17 17 19 20 20 22 24 24 24 25 26 25 23
26 22 21 24 25 25 25 23 19 17 18 18 19 20 20 20 19 19 19 20 20 22 23 24 25 27 27 25 25 24 24 25 23 22 23 22 15 14 18 20 23 26 27 30 34 35 33 30 28 26 28 33 36 36 36 34 33 34 31 28 27 26 24 22 21 22 21 18 14 11 10 9 10 12 15 16 16 18 19 19 21 24 25 25 25 25 24 24
26 22 23 24 23 25 24 20 17 17 17 18 19 21 21 20 19 18 17 17 18 20 21 22 24 26 26 25 24 24 25 26 25 23 23 22 18 16 17 18 21 24 25 26 30 34 32 28 28 28 27 30 34 33 34 34 33 34 33 30 27 26 26 24 21 20 21 20 17 14 11 7 5 7 11 13 14 15 17 17 18 22 24 25 26 25 25 25
24 23 23 22 22 25 23 18 17 17 17 18 20 21 21 20 18 16 15 15 16 17 18 19 21 24 25 24 23 24 26 27 27 25 23 21 19 17 17 18 21 23 24 25 26 28 30 29 29 28 25 27 31 31 32 33 33 33 34 33 30 28 27 25 21 19 20 20 19 16 13 9 7 7 9 10 11 12 15 16 16 19 21 22 24 25 25 26
25 23 21 21 23 23 20 17 18 18 18 20 20 21 20 18 16 14 14 14 14 14 16 17 18 21 23 24 25 26 26 28 29 27 24 21 19 18 17 17 20 23 23 25 26 27 30 32 31 28 24 25 30 30 29 33 34 33 33 35 34 31 29 27 24 21 19 20 21 18 15 11 9 9 10 10 10 10 13 15 16 17 19 20 21 22 25 27
25 22 20 22 23 21 18 17 18 18 19 20 20 20 20 17 15 14 14 14 13 13 15 15 17 18 21 24 25 26 26 28 30 28 24 21 22 23 22 20 21 23 23 26 28 28 29 31 31 28 25 25 29 30 29 31 33 32 33 36 37 35 32 28 25 23 20 19 20 19 15 12 11 11 11 11 11 10 11 14 16 16 17 18 17 18 24 27
24 22 21 23 22 19 17 18 19 18 19 20 20 20 19 17 15 14 13 12 11 12 14 14 15 17 19 22 24 25 26 28 30 28 23 21 23 26 26 24 24 23 23 27 29 29 29 32 32 31 28 24 23 25 28 30 32 33 35 36 37 37 35 29 26 24 22 19 19 18 15 13 13 13 11 11 11 10 10 13 15 13 13 14 13 15 20 23
23 22 22 23 21 19 18 19 19 18 19 19 18 18 18 17 15 13 12 11 11 13 14 14 14 15 16 19 23 25 25 27 28 26 22 21 24 26 26 25 24 22 22 26 29 28 29 33 34 33 31 26 21 20 23 25 29 34 36 36 36 38 37 33 29 26 23 20 19 18 16 14 15 15 13 12 13 12 11 13 15 13 11 12 13 14 16 19
24 22 23 22 21 19 19 19 20 19 20 19 18 18 18 17 15 13 12 12 13 13 12 13 13 14 15 17 21 24 24 26 27 25 22 23 24 25 25 25 23 21 21 25 27 26 29 33 34 32 31 30 26 22 21 22 25 29 34 36 35 36 39 37 31 27 25 22 19 18 17 14 14 15 14 13 14 14 12 12 15 15 12 12 14 15 16 18
25 23 23 22 21 20 20 20 20 20 19 18 17 17 16 15 15 14 13 13 13 12 11 13 14 14 15 16 19 23 24 24 25 24 22 23 25 25 24 25 25 22 22 24 25 25 28 31 32 32 31 29 28 25 23 23 23 24 29 34 35 34 37 37 34 29 27 24 21 20 20 17 13 12 15 14 14 15 13 11 15 15 11 11 14 15 16 18
25 23 22 22 21 20 19 19 19 18 18 17 16 15 14 15 15 14 13 13 13 12 12 13 14 15 16 17 18 21 23 24 25 25 24 23 25 26 26 25 26 25 23 24 25 25 26 28 29 31 31 30 28 26 24 24 24 23 24 29 33 34 35 36 35 32 29 26 25 22 21 20 15 12 15 15 13 14 13 12 13 14 11 12 15 16 17 17
26 23 23 22 19 18 18 18 17 17 17 16 15 15 15 16 16 15 14 14 13 13 12 13 14 14 16 18 18 20 23 24 25 26 27 26 25 28 28 26 26 26 25 25 26 25 26 26 27 30 33 32 29 26 25 24 26 26 25 25 29 31 32 33 33 33 30 28 26 24 22 21 19 15 15 16 15 14 13 11 12 11 9 11 15 17 17 17
27 24 21 20 18 16 17 17 17 17 16 16 16 16 17 17 17 15 14 13 12 12 11 12 13 13 15 17 18 19 21 24 26 26 29 29 28 30 31 29 28 29 28 27 27 27 26 27 27 28 32 34 32 27 25 24 25 27 27 26 26 28 28 30 31 32 32 29 27 25 22 20 21 20 17 17 18 17 14 12 11 10 8 9 12 14 14 15
Wind_Direction
319 319 318 318 318 317 317 316 315 314 313 312 311 309 308 307 306 305 303 301 299 298 296 295 294 292 290 287 284 280 277 270 263 254 244 243 240 238 238 233 229 223 219 218 216 214 212 213 214 213 215 217 220 223 224 226 228 231 235 242 249 250 253 258 253 251 277 278 238 207 170 138 160 146 154 159 138 140 152 142 143 149 146 147 150 156 160 160
318 317 317 317 317 316 316 315 314 313 312 311 310 308 307 305 304 302 300 299 297 296 294 292 291 290 288 287 284 282 279 271 263 254 246 244 243 238 234 228 224 220 216 216 215 215 214 214 214 214 216 217 219 221 225 224 224 229 236 240 242 251 258 259 262 235 244 294 261 223 189 192 171 142 187 183 152 153 150 139 134 139 144 147 150 157 164 164
318 317 317 316 316 315 315 314 313 312 311 310 308 307 306 304 303 301 298 297 295 294 292 290 289 287 286 284 284 283 278 274 266 256 250 245 239 234 228 221 218 216 216 216 215 215 215 215 214 215 217 218 219 219 223 222 221 228 234 238 235 241 251 251 257 238 227 266 262 213 188 222 215 169 204 189 168 168 165 156 146 147 153 153 155 160 166 168
317 317 316 316 316 315 314 313 312 311 310 309 308 306 304 303 301 299 297 295 293 291 290 288 287 284 283 280 280 281 279 276 264 253 251 243 233 228 225 220 217 217 218 217 216 216 216 216 214 216 218 219 221 220 224 222 221 227 230 237 228 222 249 249 243 246 250 259 247 198 192 233 209 208 213 183 181 186 181 171 160 158 156 156 160 163 168 173
317 316 316 316 315 315 314 313 312 310 310 308 307 305 303 301 299 297 295 294 292 289 288 286 284 281 279 276 274 274 274 273 260 248 248 241 230 225 223 221 220 219 220 219 218 218 216 216 215 216 219 221 222 222 225 223 222 229 233 239 224 215 242 243 225 242 253 249 238 208 213 227 198 198 194 179 205 218 202 177 166 163 157 159 162 166 170 174
316 315 315 314 314 313 312 311 311 310 309 307 306 304 302 299 297 295 293 292 290 287 285 282 281 279 275 271 268 265 260 259 257 252 248 238 227 223 223 221 219 219 220 220 219 218 215 215 215 216 219 221 223 224 225 222 223 230 236 238 224 218 235 243 231 241 245 239 240 228 202 214 208 199 194 200 219 211 204 181 168 165 161 161 162 169 172 174
315 314 313 313 312 312 311 310 309 308 307 306 304 303 301 298 295 293 291 290 289 285 282 280 277 274 271 266 262 258 253 255 258 256 251 242 228 222 221 220 218 218 219 220 219 216 214 215 216 216 219 221 223 226 227 225 225 230 237 238 231 226 230 236 235 240 242 232 232 240 221 219 214 214 207 208 199 181 187 177 166 165 164 167 165 171 175 175
314 314 313 312 311 310 309 308 307 306 305 304 303 301 300 298 294 291 289 288 287 283 280 277 273 270 266 261 258 256 251 253 255 251 249 246 237 227 222 221 218 216 218 220 219 215 214 216 217 217 220 222 223 226 228 228 229 232 236 238 239 238 232 229 225 234 241 231 231 240 242 237 217 226 227 201 175 164 173 168 164 167 167 173 172 172 178 181
314 313 312 311 311 310 308 307 306 305 304 302 301 299 298 296 293 290 288 286 284 281 278 274 270 265 260 256 256 257 253 254 252 243 240 241 237 230 225 224 218 215 217 220 219 216 215 216 217 219 222 225 225 227 230 230 231 233 235 236 240 243 238 230 225 228 235 233 235 236 238 245 227 229 229 199 186 176 173 167 168 171 170 175 177 176 181 185
313 312 311 311 310 309 307 306 305 304 302 300 299 298 296 294 292 289 286 284 281 278 276 272 267 261 256 253 252 254 255 258 251 236 236 237 233 228 226 225 217 214 217 220 218 216 216 217 218 220 224 228 228 229 231 232 233 234 235 236 239 243 242 237 231 229 232 233 233 236 239 243 231 229 229 206 195 185 176 171 172 172 172 176 179 183 186 186
313 312 310 310 309 308 306 305 304 303 301 299 298 296 294 292 290 287 285 282 279 276 275 270 264 258 254 251 250 251 251 254 246 235 236 234 229 228 227 224 216 214 218 221 219 216 217 219 219 221 224 227 230 232 234 234 236 237 237 238 237 238 239 239 236 231 231 231 230 237 246 244 231 227 232 212 191 184 179 173 174 177 177 178 179 184 190 190
312 311 310 309 308 307 305 304 303 301 300 298 296 294 292 290 288 285 282 279 276 274 273 268 260 256 254 250 248 247 246 248 245 238 238 235 230 229 228 225 219 217 220 222 220 218 219 220 221 223 223 225 230 232 235 237 238 240 239 240 238 236 238 238 235 232 229 229 227 232 243 241 230 225 225 206 190 186 187 182 180 183 182 181 181 182 191 194
312 311 310 309 308 307 305 304 302 300 298 296 294 292 290 288 286 283 279 276 273 272 272 266 259 255 253 251 249 247 247 248 246 243 242 239 234 230 228 226 222 219 221 223 221 220 221 222 223 225 226 227 229 230 235 239 237 238 235 237 241 240 241 236 232 230 227 228 225 226 238 238 232 224 213 199 192 189 188 189 188 185 185 188 186 184 191 195
311 311 310 308 307 306 305 303 302 300 298 295 293 291 289 287 284 280 276 273 270 269 268 263 257 254 251 253 254 251 247 247 247 244 241 240 237 231 226 224 224 222 222 224 223 223 223 224 226 227 228 229 230 232 237 239 235 236 234 233 237 240 242 235 229 226 224 225 220 223 236 238 240 222 205 196 190 189 191 193 193 191 189 192 192 190 192 194
312 311 310 309 307 306 304 303 302 300 297 295 293 291 288 285 282 278 274 270 268 266 264 260 255 253 254 256 258 253 245 243 244 241 238 238 236 231 226 223 224 224 223 224 223 225 224 224 226 228 228 228 231 233 236 236 233 232 233 232 232 236 241 236 229 221 222 222 215 221 231 237 245 211 191 191 187 191 199 198 197 198 194 193 195 196 197 196
314 313 311 310 308 307 305 303 302 299 297 296 294 291 287 283 279 275 272 269 265 262 259 256 253 252 256 258 256 250 241 238 239 238 235 235 234 230 226 224 224 224 225 225 223 225 225 224 225 227 228 227 227 229 231 234 232 229 230 232 230 231 235 236 232 220 218 220 216 220 226 236 235 192 184 191 191 198 205 201 200 202 201 198 197 200 202 198
316 315 313 311 310 308 306 304 302 299 297 296 294 291 286 281 276 272 269 266 263 259 254 255 254 252 253 256 256 249 241 236 235 235 232 231 231 227 223 223 223 223 223 224 224 225 226 224 224 226 227 227 225 224 227 229 228 225 226 230 231 231 230 231 233 219 212 215 218 218 221 233 217 191 198 195 191 206 208 201 200 204 208 202 198 202 205 202
318 317 315 313 311 310 308 306 303 300 299 297 294 290 284 280 276 270 266 263 261 257 254 254 252 252 251 249 249 247 245 237 232 233 230 228 227 224 221 222 222 220 220 223 223 223 225 224 224 225 225 225 223 222 223 224 224 223 223 226 230 232 232 228 227 219 210 212 219 219 220 225 212 199 204 194 194 214 209 201 202 207 211 205 203 205 206 207
319 318 316 315 313 311 309 307 304 301 300 298 296 291 283 279 275 267 262 262 260 256 255 251 243 247 254 251 245 245 248 240 229 230 228 225 224 222 221 221 221 219 219 221 221 220 223 223 223 225 224 222 222 221 222 223 224 226 224 225 227 229 232 229 225 220 212 211 217 222 221 220 217 209 200 196 206 216 206 206 210 210 209 207 210 209 206 209
320 318 317 316 314 312 310 308 305 302 301 298 296 292 284 282 275 266 265 266 261 258 259 256 247 248 255 256 250 242 244 239 229 229 226 223 222 220 220 219 220 220 220 221 220 218 222 225 224 224 224 222 222 222 223 224 226 230 228 227 227 228 231 229 227 221 214 216 218 221 224 222 223 218 208 213 222 218 210 214 217 214 211 211 215 212 208 210
320 318 317 316 314 313 311 309 305 303 302 297 294 292 288 288 280 272 273 268 263 259 257 257 253 251 251 252 250 244 244 241 232 229 225 222 220 220 219 217 219 221 220 220 220 219 222 227 226 224 224 224 223 223 223 224 226 229 231 231 229 229 231 229 229 223 216 221 221 219 223 225 229 227 219 222 225 220 217 220 220 215 214 216 216 213 211 212
320 319 318 317 315 313 311 309 305 303 301 296 292 291 290 288 282 277 276 269 264 259 255 253 252 251 249 248 248 246 246 240 232 228 224 219 219 220 217 217 220 221 219 219 220 220 223 229 227 224 224 224 225 224 223 225 225 226 229 232 231 229 230 228 229 226 218 222 224 221 226 228 229 231 227 221 221 225 222 220 219 214 215 217 214 213 212 214
320 320 319 318 316 313 311 309 306 303 299 295 293 293 290 288 284 280 276 270 265 259 254 250 248 247 245 244 244 242 240 237 232 227 221 218 219 219 218 218 220 220 219 219 221 221 224 228 225 224 224 223 224 223 222 224 226 226 226 229 231 227 228 227 226 225 222 225 227 225 231 233 229 230 233 226 223 230 224 213 214 215 214 213 211 213 213 214
320 320 319 319 317 315 312 309 306 303 299 295 294 295 292 288 285 283 278 271 265 259 255 250 245 244 241 239 238 237 236 235 233 228 221 219 218 218 221 220 219 221 221 219 222 225 226 225 222 223 224 223 223 222 221 222 224 227 226 227 228 227 229 230 228 224 222 225 226 227 233 235 231 231 233 227 222 227 219 208 213 215 213 213 213 216 217 216
320 320 319 319 318 317 314 309 307 306 300 296 296 296 293 289 286 284 279 272 266 261 255 249 244 242 239 235 234 233 234 234 232 229 224 220 218 218 221 222 221 223 222 220 223 227 227 225 221 220 222 222 222 221 221 221 223 226 226 226 227 228 230 231 232 227 222 224 224 228 236 235 232 233 234 229 224 227 220 211 216 215 210 212 215 219 219 216
321 320 320 318 317 317 315 310 309 308 301 297 298 296 292 290 287 284 278 271 268 262 251 243 241 239 235 232 230 229 233 235 231 229 226 222 219 219 220 222 223 223 222 221 225 228 226 225 223 220 220 220 221 222 220 219 223 225 224 225 227 229 231 230 232 230 229 229 224 226 236 239 235 232 232 232 229 230 221 213 218 217 211 212 217 219 218 215
321 320 320 318 317 316 313 309 309 307 302 299 299 296 291 289 287 284 276 267 265 258 244 239 238 237 233 229 225 224 231 234 229 228 227 222 219 219 221 222 223 223 221 221 226 227 223 222 223 220 219 219 220 221 219 217 222 225 222 222 224 227 231 230 231 233 235 237 232 228 230 236 236 231 232 233 230 229 221 214 217 216 212 214 217 216 215 216
321 320 320 318 316 314 310 307 308 307 304 301 298 294 291 288 284 279 270 262 259 251 243 241 239 237 233 227 222 223 230 232 226 226 225 222 219 219 222 223 222 222 220 221 226 224 220 221 221 219 219 220 220 220 218 217 221 223 221 222 222 224 229 231 231 233 236 239 238 232 228 232 238 236 236 234 229 228 225 222 221 216 213 215 215 213 213 216
321 320 319 318 317 314 309 305 305 306 305 302 297 293 289 286 280 271 260 256 256 255 249 244 239 234 230 227 223 224 230 232 230 225 221 221 219 219 224 224 223 223 221 224 227 224 221 222 221 220 220 220 220 220 218 217 220 220 221 224 223 222 225 228 231 233 237 238 236 233 231 236 239 238 235 230 228 228 226 229 227 216 212 214 215 215 215 216
321 320 319 319 317 315 312 307 306 308 307 303 297 293 288 281 273 263 255 250 252 260 253 242 239 233 227 227 226 227 230 232 233 225 218 219 218 219 224 224 223 225 223 225 228 226 224 222 220 221 221 220 220 220 218 218 218 217 218 222 224 223 222 224 228 231 235 239 235 231 233 237 238 237 234 230 230 228 228 231 223 212 211 211 212 214 215 217
322 320 319 319 317 316 314 311 311 312 308 304 299 293 285 276 265 256 253 252 254 260 252 242 247 243 234 232 231 228 228 229 230 225 218 217 216 217 221 221 221 223 223 224 225 225 224 223 221 220 220 219 218 219 218 216 216 215 215 217 220 221 220 222 223 224 232 238 235 231 233 236 238 236 235 235 232 227 230 230 213 207 211 210 210 214 216 216
322 320 319 318 317 316 313 311 314 313 309 306 300 292 283 273 260 251 253 255 254 255 251 250 257 254 246 243 239 233 230 226 225 224 220 216 216 217 218 219 217 218 221 222 221 222 222 223 222 220 218 217 215 216 216 214 213 213 212 212 215 216 216 219 221 222 231 237 233 230 231 235 240 238 235 237 233 226 228 226 211 208 213 211 211 216 217 215
322 320 319 318 317 315 313 314 316 314 311 308 299 290 280 269 260 255 253 251 252 256 256 258 260 256 250 245 239 235 233 227 223 223 221 217 218 218 218 220 218 218 221 221 219 220 221 222 222 220 217 215 215 214 213 212 209 210 211 209 212 214 213 218 222 225 233 236 232 229 230 235 241 240 235 235 234 230 227 223 218 215 215 213 212 216 217 212
323 321 319 318 317 316 318 320 319 317 314 309 300 288 275 266 261 259 254 250 255 260 260 262 262 257 249 242 236 234 233 229 222 221 222 218 218 219 219 219 219 219 221 221 220 219 219 220 219 218 216 213 214 215 213 211 209 211 213 213 216 218 217 220 222 226 233 234 229 226 229 235 238 237 234 233 233 233 228 223 222 217 215 215 212 214 215 211
324 322 320 319 319 321 325 325 323 322 318 313 303 287 273 266 261 257 258 258 258 259 262 262 257 252 247 240 237 235 231 230 224 220 221 220 220 220 219 219 219 218 219 220 220 219 221 223 219 217 218 214 214 215 213 212 212 212 213 216 219 218 219 225 229 228 232 235 230 225 230 236 240 241 237 231 229 229 227 227 225 215 210 211 209 212 216 212
326 325 324 323 323 326 329 329 327 326 323 319 309 292 275 268 263 264 269 268 261 261 264 258 246 243 244 238 236 233 231 233 228 222 220 220 222 222 221 220 219 218 218 219 220 219 221 224 218 215 217 217 214 212 211 213 214 211 212 217 218 217 221 227 231 229 228 233 231 228 232 235 238 242 236 230 228 225 223 224 224 213 206 208 211 214 216 211
329 327 325 323 321 326 330 331 329 328 327 324 316 301 285 272 269 273 273 267 263 262 262 252 239 239 243 237 235 238 242 237 226 221 221 219 222 223 222 222 220 219 219 220 222 222 223 225 220 214 215 216 213 210 211 216 216 212 214 216 215 217 222 225 229 228 225 230 231 229 232 231 231 235 231 226 226 224 221 219 221 217 208 208 211 213 214 209
329 326 323 322 321 326 330 329 329 329 328 326 318 307 294 279 273 274 272 267 264 261 256 245 237 240 242 239 239 243 244 234 221 221 222 218 219 222 222 223 221 219 219 220 222 223 224 227 222 215 214 213 210 209 212 215 217 218 217 213 212 216 218 218 224 227 225 229 230 228 230 229 228 229 225 223 221 222 222 217 217 218 208 205 208 210 210 207
329 327 327 328 326 328 329 327 327 327 326 327 324 316 308 295 282 276 273 269 264 260 253 245 240 240 240 239 241 239 234 230 228 226 220 217 220 221 220 221 221 220 219 219 221 221 221 225 223 214 211 209 208 210 212 212 214 218 219 213 213 217 217 216 220 225 226 228 227 227 230 232 233 229 222 221 217 217 222 218 215 214 206 204 207 207 208 208
328 326 328 331 329 328 328 324 322 322 324 327 326 323 318 308 295 284 276 269 263 257 252 249 244 239 238 239 238 234 230 231 233 228 218 217 222 219 217 220 221 223 221 218 218 217 217 222 223 213 206 208 211 211 211 211 210 213 216 213 212 214 216 217 219 222 224 227 225 226 232 236 237 229 220 221 218 214 219 221 216 212 208 206 207 206 210 213
326 323 324 328 330 329 329 325 322 323 325 325 325 323 322 316 304 291 279 270 263 256 253 252 247 240 238 237 233 231 231 229 227 226 218 216 220 219 218 222 223 224 223 220 217 214 213 217 220 215 209 210 213 212 211 212 211 212 214 215 213 211 212 215 218 218 220 226 226 224 232 237 232 223 216 219 220 213 214 219 217 213 210 207 206 208 211 212
324 322 322 326 330 332 330 325 324 326 324 324 325 323 323 320 308 294 284 275 267 259 253 250 247 242 237 234 233 232 230 226 224 225 222 222 227 228 225 226 226 224 223 222 217 213 213 217 218 217 217 215 212 210 210 212 214 214 214 216 216 212 212 215 217 215 215 221 225 226 230 229 220 218 210 210 215 209 209 216 214 211 211 208 208 211 210 205
327 324 323 325 329 330 328 325 325 326 323 324 325 323 323 321 311 301 291 279 269 263 257 252 248 242 235 233 234 231 229 226 224 224 225 227 228 229 233 233 226 222 219 217 215 212 212 215 214 215 220 218 210 209 211 212 214 216 214 214 216 214 213 215 217 216 216 217 219 221 223 218 216 219 207 203 210 206 204 210 209 207 211 211 209 211 208 202
327 322 321 325 329 328 326 326 326 324 322 323 323 322 323 322 313 305 297 284 274 267 261 255 248 241 236 235 232 228 228 225 222 222 227 230 230 231 238 237 225 219 216 214 214 212 210 212 213 213 216 214 207 205 209 210 212 216 214 212 214 215 212 213 216 217 218 216 214 216 220 216 213 214 208 206 211 206 201 204 205 205 208 211 210 208 204 200
326 322 321 324 327 325 323 324 324 321 321 323 322 321 323 322 315 308 302 292 280 269 262 256 252 246 239 235 231 229 227 224 222 224 229 236 233 228 232 236 228 222 220 217 217 214 211 212 214 212 210 209 206 205 207 208 209 214 214 211 211 213 212 211 213 215 216 214 212 215 216 207 201 204 204 204 205 205 200 199 203 204 203 207 210 203 199 200
326 325 324 325 325 322 318 321 323 321 321 322 322 322 323 322 316 309 304 298 284 274 268 261 257 250 240 235 232 230 229 226 225 226 231 235 230 226 232 235 229 227 226 221 219 217 214 215 216 215 213 213 214 213 211 210 210 212 214 212 209 211 213 212 213 214 214 212 212 213 208 198 197 200 200 200 202 206 206 198 199 199 192 196 204 198 197 202
326 325 325 325 324 319 317 320 322 320 319 319 320 320 320 318 315 310 304 301 295 284 273 263 256 250 244 239 234 231 231 230 228 229 233 233 228 228 234 230 226 232 231 221 217 217 215 215 216 218 218 217 221 220 213 212 213 212 213 213 209 209 212 213 213 212 210 210 211 206 200 197 198 200 203 207 206 209 211 201 194 190 183 188 197 195 192 197
326 323 323 323 319 316 316 318 318 317 316 316 317 318 317 314 312 309 304 301 298 289 275 264 259 254 250 245 237 233 234 232 231 231 231 230 228 229 230 227 225 229 225 217 215 215 215 214 215 218 219 218 221 225 221 218 217 213 212 213 210 208 210 213 213 210 208 211 210 203 202 204 199 199 205 207 203 203 205 197 191 188 183 187 195 195 193 194
326 322 322 321 316 313 314 315 316 315 315 315 317 317 315 312 310 309 307 303 297 291 283 273 267 260 255 249 240 236 235 233 234 233 229 229 229 227 227 224 221 221 219 216 216 216 213 212 214 217 220 220 221 224 224 219 215 215 214 212 210 209 210 212 214 212 210 212 211 206 207 211 210 205 202 198 195 196 196 192 190 190 191 194 197 198 196 196
327 321 321 320 315 311 313 316 317 316 314 314 316 315 312 311 312 309 306 304 298 294 290 281 273 266 260 253 245 239 236 235 236 234 229 229 228 225 223 221 219 222 221 217 216 216 213 212 216 217 217 218 217 219 224 219 212 217 219 213 210 209 209 211 213 214 212 211 211 209 207 208 210 203 192 187 186 189 191 190 188 190 200 206 203 204 202 199
326 319 318 318 315 312 314 317 317 316 314 315 315 315 313 312 310 305 301 302 299 295 293 287 281 273 262 255 249 244 240 237 236 234 229 227 226 224 222 221 222 223 221 219 218 217 215 215 217 216 215 214 211 215 224 220 211 216 222 218 214 211 209 209 211 213 212 209 209 211 209 208 207 201 191 187 191 195 194 191 188 193 206 207 201 202 204 201
330 322 318 316 313 311 314 316 316 315 313 314 316 314 310 308 307 303 301 300 297 293 287 285 285 279 267 257 251 248 245 239 237 235 231 228 228 226 223 223 225 223 221 222 220 217 216 215 214 214 215 214 211 215 223 219 212 216 219 217 214 210 209 209 209 211 213 210 210 212 211 209 209 209 204 195 195 200 201 198 198 203 211 205 196 196 198 196